Zurück zum Katalog

STARLINK-35235

AktivKommunikationVLEO
NORAD 65682·PAYLOAD·🇺🇸 United States

Gestartet Sep 21, 2025 von Cape Canaveral Space Force Station

Loading…

Nächste Überflüge (nächste 24 Stunden)

TLE

AktuellSource: CelesTrak SupGP

Epoche: Sep 14, 2026, 15:04 UTC

1 65682C 25212G   26257.62826389  .00051282  00000+0  15162-2 0  2576
2 65682  53.1574 183.4750 0001129 101.1306 334.3803 15.34343848    15

Verfolge STARLINK-35235 in Echtzeit mit AllMySat

Download on the App Store